ROBUSTA 3A

Last updated on Tue Jul 23 2024 00:02:03 GMT+0000 (Coordinated Universal Time)

1 60243U 24128J 24204.56468144 .00010749 00000+0 97214-3 0 9998 2 60243 61.9928 117.7025 0012765 259.7541 100.2108 14.95812502 1908
UTC large
Height (km)
Speed (km/s)
/
Latitude / Longitude
Inclination (degrees)
Orbital Period (minutes)
Azimuth
Elevation
Range (km)
Doppler Factor

Next 0 passes for location: London (51.5072 / 0.1276)

Sorry there are no passes over London.